| time (UTC) | temp F | wind direction | speed MPH | gust MPH | rain 1hr in | rain 24hr in | rain mn in | humidity % | barometer mb |
| 20260505073038 | 51 | 21 | 3.0 | 16.0 | 0.00 | 0.00 | 0.00 | 46 | 1004.0 |
| 20260505071536 | 51 | 338 | 3.0 | 11.0 | 0.00 | 0.00 | 0.00 | 47 | 1003.8 |
| 20260505070036 | 52 | 317 | 2.0 | 14.0 | 0.00 | 0.00 | 0.00 | 46 | 1003.5 |
| 20260505064537 | 53 | 327 | 5.0 | 17.0 | 0.00 | 0.00 | 0.00 | 45 | 1003.2 |
| 20260505063041 | 53 | 282 | 3.0 | 12.0 | 0.00 | 0.00 | 0.00 | 45 | 1003.1 |
| 20260505061601 | 54 | 321 | 6.0 | 15.0 | 0.00 | 0.00 | 0.00 | 44 | 1003.0 |
| 20260505060044 | 55 | 308 | 3.0 | 10.0 | 0.00 | 0.00 | 0.00 | 44 | 1003.1 |
| 20260505054541 | 56 | 12 | 4.0 | 12.0 | 0.00 | 0.00 | 0.00 | 42 | 1002.9 |
| 20260505053035 | 58 | 340 | 6.0 | 18.0 | 0.00 | 0.00 | 0.00 | 40 | 1002.4 |
| 20260505051541 | 58 | 302 | 4.0 | 9.0 | 0.00 | 0.00 | 0.00 | 37 | 1002.0 |
| 20260505041535 | 61 | 326 | 4.0 | 12.0 | 0.00 | 0.00 | 0.00 | 33 | 1000.7 |
| 20260505040041 | 62 | 11 | 6.0 | 12.0 | 0.00 | 0.00 | 0.00 | 32 | 1000.4 |
| 20260505034540 | 63 | 290 | 3.0 | 11.0 | 0.00 | 0.00 | 0.00 | 31 | 1000.5 |
| 20260505033046 | 63 | 286 | 4.0 | 11.0 | 0.00 | 0.00 | 0.00 | 31 | 1000.6 |
| 20260505031535 | 64 | 309 | 5.0 | 11.0 | 0.00 | 0.00 | 0.00 | 31 | 1000.4 |
| 20260505030036 | 64 | 270 | 6.0 | 16.0 | 0.00 | 0.00 | 0.00 | 32 | 1000.0 |
| 20260505024602 | 65 | 320 | 5.0 | 18.0 | 0.00 | 0.00 | 0.00 | 33 | 999.7 |
| 20260505023042 | 66 | 283 | 7.0 | 14.0 | 0.00 | 0.00 | 0.00 | 33 | 999.6 |
| 20260505021549 | 67 | 328 | 8.0 | 20.0 | 0.00 | 0.00 | 0.00 | 34 | 999.4 |
| 20260505020044 | 68 | 319 | 5.0 | 14.0 | 0.00 | 0.00 | 0.00 | 36 | 999.0 |
| 20260505014538 | 68 | 335 | 4.0 | 11.0 | 0.00 | 0.00 | 0.00 | 36 | 998.6 |
| 20260505013036 | 70 | 309 | 5.0 | 11.0 | 0.00 | 0.00 | 0.00 | 37 | 997.9 |
| 20260505011547 | 71 | 300 | 2.0 | 9.0 | 0.00 | 0.00 | 0.00 | 38 | 997.0 |
| 20260505010037 | 72 | 280 | 5.0 | 13.0 | 0.00 | 0.00 | 0.00 | 38 | 996.8 |
| 20260505004544 | 73 | 337 | 6.0 | 11.0 | 0.00 | 0.00 | 0.00 | 36 | 996.4 |
| 20260505003037 | 74 | 243 | 4.0 | 8.0 | 0.00 | 0.00 | 0.00 | 35 | 995.3 |
| 20260505001537 | 75 | 236 | 4.0 | 13.0 | 0.00 | 0.00 | 0.00 | 33 | 995.2 |
| 20260505000035 | 75 | 274 | 7.0 | 12.0 | 0.00 | 0.00 | 0.00 | 33 | 995.3 |
| 20260504234535 | 75 | 255 | 8.0 | 15.0 | 0.00 | 0.00 | 0.00 | 33 | 995.5 |
| 20260504233043 | 76 | 251 | 11.0 | 21.0 | 0.00 | 0.00 | 0.00 | 33 | 995.9 |
| 20260504231539 | 77 | 216 | 14.0 | 27.0 | 0.00 | 0.00 | 0.00 | 34 | 996.1 |
| 20260504230037 | 78 | 261 | 9.0 | 19.0 | 0.00 | 0.00 | 0.00 | 30 | 995.7 |
| 20260504224535 | 78 | 262 | 9.0 | 20.0 | 0.00 | 0.00 | 0.00 | 30 | 995.9 |
| 20260504223036 | 79 | 252 | 11.0 | 26.0 | 0.00 | 0.00 | 0.00 | 29 | 996.0 |
| 20260504221546 | 79 | 239 | 12.0 | 27.0 | 0.00 | 0.00 | 0.00 | 29 | 996.1 |
| 20260504220058 | 79 | 248 | 13.0 | 25.0 | 0.00 | 0.00 | 0.00 | 27 | 996.3 |
| 20260504214539 | 79 | 267 | 10.0 | 23.0 | 0.00 | 0.00 | 0.00 | 28 | 996.6 |
| 20260504213036 | 79 | 257 | 12.0 | 22.0 | 0.00 | 0.00 | 0.00 | 27 | 996.6 |
| 20260504211535 | 78 | 243 | 10.0 | 21.0 | 0.00 | 0.00 | 0.00 | 29 | 996.7 |
| 20260504210032 | 78 | 262 | 14.0 | 22.0 | 0.00 | 0.00 | 0.00 | 28 | 996.9 |
| 20260504204556 | 78 | 266 | 10.0 | 21.0 | 0.00 | 0.00 | 0.00 | 28 | 997.1 |
| 20260504203038 | 78 | 293 | 11.0 | 22.0 | 0.00 | 0.00 | 0.00 | 28 | 997.3 |
| 20260504201537 | 78 | 266 | 8.0 | 22.0 | 0.00 | 0.00 | 0.00 | 28 | 997.4 |
| 20260504200042 | 78 | 251 | 10.0 | 21.0 | 0.00 | 0.00 | 0.00 | 28 | 997.4 |
| 20260504194540 | 77 | 262 | 8.0 | 19.0 | 0.00 | 0.00 | 0.00 | 29 | 997.5 |
| 20260504193041 | 77 | 233 | 8.0 | 23.0 | 0.00 | 0.00 | 0.00 | 27 | 997.6 |
| 20260504191541 | 77 | 233 | 8.0 | 20.0 | 0.00 | 0.00 | 0.00 | 28 | 997.9 |
| 20260504190039 | 77 | 232 | 9.0 | 24.0 | 0.00 | 0.00 | 0.00 | 29 | 997.7 |
| 20260504184537 | 76 | 278 | 7.0 | 22.0 | 0.00 | 0.00 | 0.00 | 29 | 998.0 |
| 20260504183041 | 76 | 216 | 10.0 | 23.0 | 0.00 | 0.00 | 0.00 | 29 | 998.4 |
| 20260504181543 | 75 | 264 | 13.0 | 23.0 | 0.00 | 0.00 | 0.00 | 29 | 998.3 |
| 20260504180039 | 75 | 222 | 8.0 | 25.0 | 0.00 | 0.00 | 0.00 | 29 | 998.4 |
| 20260504174538 | 75 | 257 | 9.0 | 20.0 | 0.00 | 0.00 | 0.00 | 29 | 998.5 |
| 20260504173035 | 74 | 250 | 14.0 | 24.0 | 0.00 | 0.00 | 0.00 | 27 | 998.7 |
| 20260504171535 | 74 | 226 | 9.0 | 21.0 | 0.00 | 0.00 | 0.00 | 28 | 999.0 |
| 20260504081548 | 49 | 218 | 1.0 | 3.0 | 0.00 | 0.00 | 0.00 | 79 | 1003.1 |